owner,sensor,date,latitude,longitude,vertical_datum,direction_of_sea_water_velocity,sea_water_speed,upward_sea_water_velocity,qcFlag 
TABS,ioos:station:wmo:42044:1,2008-02-01T00:00:00Z,26.1914,-97.0507,2.0,166.996,55.99601414,-99999.0,'11111222,11111222,99999999' 
TABS,ioos:station:wmo:42044:1,2008-02-01T00:30:00Z,26.1914,-97.0507,2.0,170.0024802,52.99467992,-99999.0,'11111222,11111222,99999999' 
TABS,ioos:station:wmo:42044:1,2008-02-01T01:00:00Z,26.1914,-97.0507,2.0,168.0004931,51.99611235,-99999.0,'11111222,11111222,99999999' 
TABS,ioos:station:wmo:42044:1,2008-02-01T01:30:00Z,26.1914,-97.0507,2.0,171.0022806,61.00060737,-99999.0,'11111222,11111222,99999999' 
TABS,ioos:station:wmo:42044:1,2008-02-01T02:00:00Z,26.1914,-97.0507,2.0,169.9994925,52.00004808,-99999.0,'11111222,11111222,99999999' 
TABS,ioos:station:wmo:42044:1,2008-02-01T02:30:00Z,26.1914,-97.0507,2.0,164.9959808,52.99674047,-99999.0,'11111222,11111222,99999999' 
TABS,ioos:station:wmo:42044:1,2008-02-01T03:00:00Z,26.1914,-97.0507,2.0,166.9977708,52.00325855,-99999.0,'11111222,11111222,99999999' 
TABS,ioos:station:wmo:42044:1,2008-02-01T03:30:00Z,26.1914,-97.0507,2.0,164.0013472,42.99524857,-99999.0,'11111222,11111222,99999999' 
TABS,ioos:station:wmo:42044:1,2008-02-01T04:00:00Z,26.1914,-97.0507,2.0,159.5060394,49.55642138,-99999.0,'11111222,11111222,99999999' 
TABS,ioos:station:wmo:42044:1,2008-02-01T04:30:00Z,26.1914,-97.0507,2.0,161.999757,49.99704991,-99999.0,'11111222,11111222,99999999' 
TABS,ioos:station:wmo:42044:1,2008-02-01T05:00:00Z,26.1914,-97.0507,2.0,155.9978006,50.00377986,-99999.0,'11111222,11111222,99999999' 
TABS,ioos:station:wmo:42044:1,2008-02-01T05:30:00Z,26.1914,-97.0507,2.0,158.0069232,40.00085624,-99999.0,'11111222,11111222,99999999' 
TABS,ioos:station:wmo:42044:1,2008-02-01T06:00:00Z,26.1914,-97.0507,2.0,157.999858,30.00483294,-99999.0,'11111222,11111222,99999999' 
TABS,ioos:station:wmo:42044:1,2008-02-01T06:30:00Z,26.1914,-97.0507,2.0,164.0087325,30.99954193,-99999.0,'11111222,11111222,99999999' 
TABS,ioos:station:wmo:42044:1,2008-02-01T07:00:00Z,26.1914,-97.0507,2.0,159.028128,5.001299831,-99999.0,'11133222,11111222,99999999' 
TABS,ioos:station:wmo:42044:1,2008-02-01T07:30:00Z,26.1914,-97.0507,2.0,168.0062268,35.99575669,-99999.0,'11111222,11111222,99999999' 
TABS,ioos:station:wmo:42044:1,2008-02-01T08:00:00Z,26.1914,-97.0507,2.0,168.0046272,40.99512654,-99999.0,'11111222,11111222,99999999' 
TABS,ioos:station:wmo:42044:1,2008-02-01T08:30:00Z,26.1914,-97.0507,2.0,169.9970741,37.99758413,-99999.0,'11111222,11111222,99999999' 
TABS,ioos:station:wmo:42044:1,2008-02-01T09:30:00Z,26.1914,-97.0507,2.0,164.0067967,38.00081315,-99999.0,'11111222,11111222,99999999' 
TABS,ioos:station:wmo:42044:1,2008-02-01T10:00:00Z,26.1914,-97.0507,2.0,174.0004719,30.99978226,-99999.0,'11111222,11111222,99999999' 
TABS,ioos:station:wmo:42044:1,2008-02-01T10:30:00Z,26.1914,-97.0507,2.0,168.0020692,33.00087878,-99999.0,'11111222,11111222,99999999' 
TABS,ioos:station:wmo:42044:1,2008-02-01T11:00:00Z,26.1914,-97.0507,2.0,166.0119092,23.00208686,-99999.0,'11111222,11111222,99999999' 
TABS,ioos:station:wmo:42044:1,2008-02-01T11:30:00Z,26.1914,-97.0507,2.0,173.0071404,28.99567726,-99999.0,'11111222,11111222,99999999' 
TABS,ioos:station:wmo:42044:1,2008-02-01T12:00:00Z,26.1914,-97.0507,2.0,168.0051076,31.99863278,-99999.0,'11111222,11111222,99999999' 
TABS,ioos:station:wmo:42044:1,2008-02-01T12:30:00Z,26.1914,-97.0507,2.0,179.9997895,28.0,-99999.0,'11111222,11111222,99999999' 
TABS,ioos:station:wmo:42044:1,2008-02-01T13:30:00Z,26.1914,-97.0507,2.0,188.9935609,37.99716437,-99999.0,'11111222,11111222,99999999' 
TABS,ioos:station:wmo:42044:1,2008-02-01T14:00:00Z,26.1914,-97.0507,2.0,192.0034904,40.00474097,-99999.0,'11111222,11111222,99999999' 
TABS,ioos:station:wmo:42044:1,2008-02-01T14:30:00Z,26.1914,-97.0507,2.0,189.0059003,32.0045653,-99999.0,'11111222,11111222,99999999' 
TABS,ioos:station:wmo:42044:1,2008-02-01T15:30:00Z,26.1914,-97.0507,2.0,189.005618,26.00052499,-99999.0,'11111222,11111222,99999999' 
TABS,ioos:station:wmo:42044:1,2008-02-01T16:00:00Z,26.1914,-97.0507,2.0,187.9982211,24.00351016,-99999.0,'11111222,11111222,99999999' 
TABS,ioos:station:wmo:42044:1,2008-02-01T16:30:00Z,26.1914,-97.0507,2.0,200.0086176,18.99664444,-99999.0,'11111222,11111222,99999999' 
TABS,ioos:station:wmo:42044:1,2008-02-01T17:00:00Z,26.1914,-97.0507,2.0,205.991992,16.99943823,-99999.0,'11111222,11111222,99999999' 
TABS,ioos:station:wmo:42044:1,2008-02-01T17:30:00Z,26.1914,-97.0507,2.0,212.0094365,13.99833204,-99999.0,'11111222,11111222,99999999' 
TABS,ioos:station:wmo:42044:1,2008-02-01T18:00:00Z,26.1914,-97.0507,2.0,212.0094365,13.99833204,-99999.0,'11111222,11111222,99999999' 
TABS,ioos:station:wmo:42044:1,2008-02-01T18:30:00Z,26.1914,-97.0507,2.0,222.0065593,13.00021538,-99999.0,'11111222,11111222,99999999' 
TABS,ioos:station:wmo:42044:1,2008-02-01T19:00:00Z,26.1914,-97.0507,2.0,224.9996843,9.998489886,-99999.0,'11133222,11111222,99999999' 
TABS,ioos:station:wmo:42044:1,2008-02-01T19:30:00Z,26.1914,-97.0507,2.0,224.9996843,8.004448763,-99999.0,'11133222,11111222,99999999' 
TABS,ioos:station:wmo:42044:1,2008-02-01T20:00:00Z,26.1914,-97.0507,2.0,218.0153611,10.0019998,-99999.0,'11111222,11111222,99999999' 
TABS,ioos:station:wmo:42044:1,2008-02-01T20:30:00Z,26.1914,-97.0507,2.0,224.9996843,22.99511252,-99999.0,'11111222,11111222,99999999' 
TABS,ioos:station:wmo:42044:1,2008-02-01T21:00:00Z,26.1914,-97.0507,2.0,221.0034103,21.00264031,-99999.0,'11111222,11111222,99999999' 
TABS,ioos:station:wmo:42044:1,2008-02-01T21:30:00Z,26.1914,-97.0507,2.0,240.0014125,23.00122605,-99999.0,'11111222,11111222,99999999' 
TABS,ioos:station:wmo:42044:1,2008-02-01T22:00:00Z,26.1914,-97.0507,2.0,238.9915191,31.00009355,-99999.0,'11111222,11111222,99999999' 
TABS,ioos:station:wmo:42044:1,2008-02-01T22:30:00Z,26.1914,-97.0507,2.0,240.0043775,21.00300217,-99999.0,'11111222,11111222,99999999' 
TABS,ioos:station:wmo:42044:1,2008-02-01T23:00:00Z,26.1914,-97.0507,2.0,245.997486,22.00255667,-99999.0,'11111222,11111222,99999999' 
TABS,ioos:station:wmo:42044:1,2008-02-01T23:30:00Z,26.1914,-97.0507,2.0,239.990734,13.99622806,-99999.0,'11111222,11111222,99999999' 
TABS,ioos:station:wmo:42044:1,2008-02-02T00:00:00Z,26.1914,-97.0507,2.0,251.0009958,9.000277773,-99999.0,'11133222,11111222,99999999' 
TABS,ioos:station:wmo:42044:1,2008-02-02T00:30:00Z,26.1914,-97.0507,2.0,270.0004209,10.0,-99999.0,'11111222,11111222,99999999' 
TABS,ioos:station:wmo:42044:1,2008-02-02T01:30:00Z,26.1914,-97.0507,2.0,251.9272992,2.997899264,-99999.0,'11133222,11111222,99999999' 
TABS,ioos:station:wmo:42044:1,2008-02-02T02:00:00Z,26.1914,-97.0507,2.0,297.078109,1.999124809,-99999.0,'11133222,11111222,99999999' 
TABS,ioos:station:wmo:42044:1,2008-02-02T02:30:00Z,26.1914,-97.0507,2.0,315.0003157,2.998132752,-99999.0,'11133222,11111222,99999999' 
TABS,ioos:station:wmo:42044:1,2008-02-02T03:00:00Z,26.1914,-97.0507,2.0,0.000210459,2.0,-99999.0,'11133222,11111222,99999999' 
TABS,ioos:station:wmo:42044:1,2008-02-02T03:30:00Z,26.1914,-97.0507,2.0,45.00010523,4.002224382,-99999.0,'11133222,11111222,99999999' 
TABS,ioos:station:wmo:42044:1,2008-02-02T04:00:00Z,26.1914,-97.0507,2.0,54.02321384,5.004607877,-99999.0,'11133222,11111222,99999999' 
TABS,ioos:station:wmo:42044:1,2008-02-02T04:30:00Z,26.1914,-97.0507,2.0,65.02930916,9.00142211,-99999.0,'11133222,11111222,99999999' 
TABS,ioos:station:wmo:42044:1,2008-02-02T05:00:00Z,26.1914,-97.0507,2.0,56.00975939,8.997360724,-99999.0,'11133222,11111222,99999999' 
TABS,ioos:station:wmo:42044:1,2008-02-02T05:30:00Z,26.1914,-97.0507,2.0,76.99467536,11.99775396,-99999.0,'11111222,11111222,99999999' 
TABS,ioos:station:wmo:42044:1,2008-02-02T06:30:00Z,26.1914,-97.0507,2.0,98.01566383,16.99605248,-99999.0,'11111222,11111222,99999999' 
TABS,ioos:station:wmo:42044:1,2008-02-02T07:00:00Z,26.1914,-97.0507,2.0,106.9950125,17.99588008,-99999.0,'11111222,11111222,99999999' 
TABS,ioos:station:wmo:42044:1,2008-02-02T07:30:00Z,26.1914,-97.0507,2.0,116.9920294,18.0008472,-99999.0,'11111222,11111222,99999999' 
TABS,ioos:station:wmo:42044:1,2008-02-02T08:00:00Z,26.1914,-97.0507,2.0,130.9995899,21.99511082,-99999.0,'11111222,11111222,99999999' 
TABS,ioos:station:wmo:42044:1,2008-02-02T08:30:00Z,26.1914,-97.0507,2.0,132.0007411,25.0021859,-99999.0,'11111222,11111222,99999999' 
TABS,ioos:station:wmo:42044:1,2008-02-02T09:00:00Z,26.1914,-97.0507,2.0,131.007545,25.99976923,-99999.0,'11111222,11111222,99999999' 
TABS,ioos:station:wmo:42044:1,2008-02-02T09:30:00Z,26.1914,-97.0507,2.0,139.987822,27.00059259,-99999.0,'11111222,11111222,99999999' 
TABS,ioos:station:wmo:42044:1,2008-02-02T10:00:00Z,26.1914,-97.0507,2.0,147.0050218,24.00087082,-99999.0,'11111222,11111222,99999999' 
TABS,ioos:station:wmo:42044:1,2008-02-02T10:30:00Z,26.1914,-97.0507,2.0,133.9968412,21.00429004,-99999.0,'11111222,11111222,99999999' 
TABS,ioos:station:wmo:42044:1,2008-02-02T11:00:00Z,26.1914,-97.0507,2.0,134.0133514,22.99852169,-99999.0,'11111222,11111222,99999999' 
TABS,ioos:station:wmo:42044:1,2008-02-02T11:30:00Z,26.1914,-97.0507,2.0,133.9968412,21.00429004,-99999.0,'11111222,11111222,99999999' 
TABS,ioos:station:wmo:42044:1,2008-02-02T12:00:00Z,26.1914,-97.0507,2.0,133.8126945,20.13565246,-99999.0,'11111222,11111222,99999999' 
TABS,ioos:station:wmo:42044:1,2008-02-02T13:00:00Z,26.1914,-97.0507,2.0,131.9823823,17.99961111,-99999.0,'11111222,11111222,99999999' 
TABS,ioos:station:wmo:42044:1,2008-02-02T13:30:00Z,26.1914,-97.0507,2.0,130.9924025,16.99798223,-99999.0,'11111222,11111222,99999999' 
TABS,ioos:station:wmo:42044:1,2008-02-02T14:00:00Z,26.1914,-97.0507,2.0,129.0121127,15.997181,-99999.0,'11111222,11111222,99999999' 
TABS,ioos:station:wmo:42044:1,2008-02-02T14:30:00Z,26.1914,-97.0507,2.0,142.982843,21.02806934,-99999.0,'11111222,11111222,99999999' 
TABS,ioos:station:wmo:42044:1,2008-02-02T15:00:00Z,26.1914,-97.0507,2.0,134.9998948,16.99884702,-99999.0,'11111222,11111222,99999999' 
TABS,ioos:station:wmo:42044:1,2008-02-02T15:30:00Z,26.1914,-97.0507,2.0,134.9998948,15.99475539,-99999.0,'11111222,11111222,99999999' 
TABS,ioos:station:wmo:42044:1,2008-02-02T16:00:00Z,26.1914,-97.0507,2.0,130.9924025,16.99798223,-99999.0,'11111222,11111222,99999999' 
TABS,ioos:station:wmo:42044:1,2008-02-02T16:30:00Z,26.1914,-97.0507,2.0,129.0121127,15.997181,-99999.0,'11111222,11111222,99999999' 
TABS,ioos:station:wmo:42044:1,2008-02-02T17:30:00Z,26.1914,-97.0507,2.0,134.9998948,19.99697977,-99999.0,'11111222,11111222,99999999' 
TABS,ioos:station:wmo:42044:1,2008-02-02T18:00:00Z,26.1914,-97.0507,2.0,134.9998948,21.0010714,-99999.0,'11111222,11111222,99999999' 
TABS,ioos:station:wmo:42044:1,2008-02-02T18:30:00Z,26.1914,-97.0507,2.0,134.9998948,21.0010714,-99999.0,'11111222,11111222,99999999' 
TABS,ioos:station:wmo:42044:1,2008-02-02T19:00:00Z,26.1914,-97.0507,2.0,143.0054226,23.00005435,-99999.0,'11111222,11111222,99999999' 
TABS,ioos:station:wmo:42044:1,2008-02-02T19:30:00Z,26.1914,-97.0507,2.0,147.0050218,24.00087082,-99999.0,'11111222,11111222,99999999' 
TABS,ioos:station:wmo:42044:1,2008-02-02T20:00:00Z,26.1914,-97.0507,2.0,161.9963188,20.99811896,-99999.0,'11111222,11111222,99999999' 
TABS,ioos:station:wmo:42044:1,2008-02-02T20:30:00Z,26.1914,-97.0507,2.0,159.0051713,24.00350183,-99999.0,'11111222,11111222,99999999' 
TABS,ioos:station:wmo:42044:1,2008-02-02T21:00:00Z,26.1914,-97.0507,2.0,179.9997895,19.0,-99999.0,'11111222,11111222,99999999' 
TABS,ioos:station:wmo:42044:1,2008-02-02T21:30:00Z,26.1914,-97.0507,2.0,178.9972181,20.00306227,-99999.0,'11111222,11111222,99999999' 
TABS,ioos:station:wmo:42044:1,2008-02-02T22:00:00Z,26.1914,-97.0507,2.0,188.0173079,17.99590231,-99999.0,'11111222,11111222,99999999' 
TABS,ioos:station:wmo:42044:1,2008-02-02T22:30:00Z,26.1914,-97.0507,2.0,185.0113107,19.00264455,-99999.0,'11111222,11111222,99999999' 
TABS,ioos:station:wmo:42044:1,2008-02-02T23:00:00Z,26.1914,-97.0507,2.0,189.0051662,19.99648469,-99999.0,'11111222,11111222,99999999' 
TABS,ioos:station:wmo:42044:1,2008-02-02T23:30:00Z,26.1914,-97.0507,2.0,197.0138028,19.00164467,-99999.0,'11111222,11111222,99999999' 
TABS,ioos:station:wmo:42044:1,2008-02-03T00:00:00Z,26.1914,-97.0507,2.0,190.9975175,26.99578671,-99999.0,'11111222,11111222,99999999' 
TABS,ioos:station:wmo:42044:1,2008-02-03T00:30:00Z,26.1914,-97.0507,2.0,201.0063961,31.99652794,-99999.0,'11111222,11111222,99999999' 
TABS,ioos:station:wmo:42044:1,2008-02-03T01:00:00Z,26.1914,-97.0507,2.0,191.9975099,33.00087878,-99999.0,'11111222,11111222,99999999' 
TABS,ioos:station:wmo:42044:1,2008-02-03T01:30:00Z,26.1914,-97.0507,2.0,191.0023858,34.0050658,-99999.0,'11111222,11111222,99999999' 
TABS,ioos:station:wmo:42044:1,2008-02-03T02:00:00Z,26.1914,-97.0507,2.0,180.7296309,32.97267505,-99999.0,'11111222,11111222,99999999' 
TABS,ioos:station:wmo:42044:1,2008-02-03T02:30:00Z,26.1914,-97.0507,2.0,190.9999267,36.99981081,-99999.0,'11111222,11111222,99999999' 
TABS,ioos:station:wmo:42044:1,2008-02-03T03:00:00Z,26.1914,-97.0507,2.0,185.9954515,35.99691098,-99999.0,'11111222,11111222,99999999' 
TABS,ioos:station:wmo:42044:1,2008-02-03T03:30:00Z,26.1914,-97.0507,2.0,185.0039901,35.997211,-99999.0,'11111222,11111222,99999999' 
TABS,ioos:station:wmo:42044:1,2008-02-03T04:00:00Z,26.1914,-97.0507,2.0,182.9933301,35.9991236,-99999.0,'11111222,11111222,99999999' 
TABS,ioos:station:wmo:42044:1,2008-02-03T04:30:00Z,26.1914,-97.0507,2.0,184.9962923,38.00441685,-99999.0,'11111222,11111222,99999999' 
TABS,ioos:station:wmo:42044:1,2008-02-03T05:00:00Z,26.1914,-97.0507,2.0,186.0041681,39.00398057,-99999.0,'11111222,11111222,99999999' 
TABS,ioos:station:wmo:42044:1,2008-02-03T05:30:00Z,26.1914,-97.0507,2.0,188.0019334,38.00001316,-99999.0,'11111222,11111222,99999999' 
TABS,ioos:station:wmo:42044:1,2008-02-03T06:00:00Z,26.1914,-97.0507,2.0,185.9969427,37.99796047,-99999.0,'11111222,11111222,99999999' 
TABS,ioos:station:wmo:42044:1,2008-02-03T06:30:00Z,26.1914,-97.0507,2.0,190.9984972,38.99630752,-99999.0,'11111222,11111222,99999999' 
TABS,ioos:station:wmo:42044:1,2008-02-03T07:00:00Z,26.1914,-97.0507,2.0,195.0049918,35.99743463,-99999.0,'11111222,11111222,99999999' 
TABS,ioos:station:wmo:42044:1,2008-02-03T07:30:00Z,26.1914,-97.0507,2.0,197.0076967,31.999525,-99999.0,'11111222,11111222,99999999' 
TABS,ioos:station:wmo:42044:1,2008-02-03T08:00:00Z,26.1914,-97.0507,2.0,197.999822,29.99822995,-99999.0,'11111222,11111222,99999999' 
TABS,ioos:station:wmo:42044:1,2008-02-03T08:30:00Z,26.1914,-97.0507,2.0,197.999822,29.99822995,-99999.0,'11111222,11111222,99999999' 
TABS,ioos:station:wmo:42044:1,2008-02-03T09:00:00Z,26.1914,-97.0507,2.0,207.0051977,31.99907811,-99999.0,'11111222,11111222,99999999' 
TABS,ioos:station:wmo:42044:1,2008-02-03T10:00:00Z,26.1914,-97.0507,2.0,197.0036955,28.99764301,-99999.0,'11111222,11111222,99999999' 
TABS,ioos:station:wmo:42044:1,2008-02-03T10:30:00Z,26.1914,-97.0507,2.0,192.0093166,30.99846609,-99999.0,'11111222,11111222,99999999' 
TABS,ioos:station:wmo:42044:1,2008-02-03T11:00:00Z,26.1914,-97.0507,2.0,191.0088482,31.00050483,-99999.0,'11111222,11111222,99999999' 
TABS,ioos:station:wmo:42044:1,2008-02-03T11:30:00Z,26.1914,-97.0507,2.0,193.9913349,28.00074642,-99999.0,'11111222,11111222,99999999' 
TABS,ioos:station:wmo:42044:1,2008-02-03T12:00:00Z,26.1914,-97.0507,2.0,188.9954115,22.00060226,-99999.0,'11111222,11111222,99999999' 
TABS,ioos:station:wmo:42044:1,2008-02-03T12:30:00Z,26.1914,-97.0507,2.0,187.9960213,23.00366058,-99999.0,'11111222,11111222,99999999' 
TABS,ioos:station:wmo:42044:1,2008-02-03T13:00:00Z,26.1914,-97.0507,2.0,183.0095582,19.99758485,-99999.0,'11111222,11111222,99999999' 
TABS,ioos:station:wmo:42044:1,2008-02-03T13:30:00Z,26.1914,-97.0507,2.0,182.9903132,23.00132387,-99999.0,'11111222,11111222,99999999' 
TABS,ioos:station:wmo:42044:1,2008-02-03T14:00:00Z,26.1914,-97.0507,2.0,182.9903132,23.00132387,-99999.0,'11111222,11111222,99999999' 
TABS,ioos:station:wmo:42044:1,2008-02-03T14:30:00Z,26.1914,-97.0507,2.0,176.0125104,22.00325885,-99999.0,'11111222,11111222,99999999' 
TABS,ioos:station:wmo:42044:1,2008-02-03T15:00:00Z,26.1914,-97.0507,2.0,178.9903993,21.00325927,-99999.0,'11111222,11111222,99999999' 
TABS,ioos:station:wmo:42044:1,2008-02-03T16:00:00Z,26.1914,-97.0507,2.0,179.003444,23.003478,-99999.0,'11111222,11111222,99999999' 
TABS,ioos:station:wmo:42044:1,2008-02-03T16:30:00Z,26.1914,-97.0507,2.0,176.0133164,21.00081189,-99999.0,'11111222,11111222,99999999' 
TABS,ioos:station:wmo:42044:1,2008-02-03T17:00:00Z,26.1914,-97.0507,2.0,177.00708,18.00455498,-99999.0,'11111222,11111222,99999999' 
TABS,ioos:station:wmo:42044:1,2008-02-03T17:30:00Z,26.1914,-97.0507,2.0,176.9907728,16.00206237,-99999.0,'11111222,11111222,99999999' 
TABS,ioos:station:wmo:42044:1,2008-02-03T18:00:00Z,26.1914,-97.0507,2.0,174.0076697,15.99740604,-99999.0,'11111222,11111222,99999999' 
TABS,ioos:station:wmo:42044:1,2008-02-03T18:30:00Z,26.1914,-97.0507,2.0,177.0009102,12.99779981,-99999.0,'11111222,11111222,99999999' 
TABS,ioos:station:wmo:42044:1,2008-02-03T19:00:00Z,26.1914,-97.0507,2.0,172.9864277,14.00478847,-99999.0,'11111222,11111222,99999999' 
TABS,ioos:station:wmo:42044:1,2008-02-03T20:00:00Z,26.1914,-97.0507,2.0,161.0012063,9.000277773,-99999.0,'11133222,11111222,99999999' 
TABS,ioos:station:wmo:42044:1,2008-02-03T20:30:00Z,26.1914,-97.0507,2.0,174.0041276,8.999227745,-99999.0,'11133222,11111222,99999999' 
TABS,ioos:station:wmo:42044:1,2008-02-03T21:00:00Z,26.1914,-97.0507,2.0,167.0052031,4.002499219,-99999.0,'11133222,11111222,99999999' 
TABS,ioos:station:wmo:42044:1,2008-02-03T22:30:00Z,26.1914,-97.0507,2.0,90.0,6.0,-99999.0,'11133222,11111222,99999999' 
TABS,ioos:station:wmo:42044:1,2008-02-03T23:00:00Z,26.1914,-97.0507,2.0,75.01060486,6.998121176,-99999.0,'11133222,11111222,99999999' 
TABS,ioos:station:wmo:42044:1,2008-02-03T23:30:00Z,26.1914,-97.0507,2.0,90.0,6.0,-99999.0,'11133222,11111222,99999999' 
TABS,ioos:station:wmo:42044:1,2008-02-04T00:00:00Z,26.1914,-97.0507,2.0,58.99047413,15.00441602,-99999.0,'11111222,11111222,99999999' 
TABS,ioos:station:wmo:42044:1,2008-02-04T00:30:00Z,26.1914,-97.0507,2.0,68.98898096,14.00090354,-99999.0,'11111222,11111222,99999999' 
TABS,ioos:station:wmo:42044:1,2008-02-04T01:00:00Z,26.1914,-97.0507,2.0,70.99155324,12.00460745,-99999.0,'11111222,11111222,99999999' 
TABS,ioos:station:wmo:42044:1,2008-02-04T01:30:00Z,26.1914,-97.0507,2.0,74.99148581,11.00542593,-99999.0,'11111222,11111222,99999999' 
TABS,ioos:station:wmo:42044:1,2008-02-04T02:00:00Z,26.1914,-97.0507,2.0,70.99155324,12.00460745,-99999.0,'11111222,11111222,99999999' 
TABS,ioos:station:wmo:42044:1,2008-02-04T02:30:00Z,26.1914,-97.0507,2.0,65.99877516,11.99733304,-99999.0,'11111222,11111222,99999999' 
TABS,ioos:station:wmo:42044:1,2008-02-04T03:00:00Z,26.1914,-97.0507,2.0,64.99575056,11.00106358,-99999.0,'11111222,11111222,99999999' 
TABS,ioos:station:wmo:42044:1,2008-02-04T03:30:00Z,26.1914,-97.0507,2.0,56.00975939,8.997360724,-99999.0,'11133222,11111222,99999999' 
TABS,ioos:station:wmo:42044:1,2008-02-04T04:00:00Z,26.1914,-97.0507,2.0,70.99155324,12.00460745,-99999.0,'11111222,11111222,99999999' 
TABS,ioos:station:wmo:42044:1,2008-02-04T04:30:00Z,26.1914,-97.0507,2.0,56.00546135,12.00110828,-99999.0,'11111222,11111222,99999999' 
TABS,ioos:station:wmo:42044:1,2008-02-04T05:00:00Z,26.1914,-97.0507,2.0,80.016388,14.99709639,-99999.0,'11111222,11111222,99999999' 
TABS,ioos:station:wmo:42044:1,2008-02-04T05:30:00Z,26.1914,-97.0507,2.0,65.01246136,12.99648029,-99999.0,'11111222,11111222,99999999' 
TABS,ioos:station:wmo:42044:1,2008-02-04T06:00:00Z,26.1914,-97.0507,2.0,75.00956784,15.00048333,-99999.0,'11111222,11111222,99999999' 
TABS,ioos:station:wmo:42044:1,2008-02-04T06:30:00Z,26.1914,-97.0507,2.0,80.016388,14.99709639,-99999.0,'11111222,11111222,99999999' 
TABS,ioos:station:wmo:42044:1,2008-02-04T07:00:00Z,26.1914,-97.0507,2.0,60.33849308,19.6210754,-99999.0,'11111222,11111222,99999999' 
TABS,ioos:station:wmo:42044:1,2008-02-04T07:30:00Z,26.1914,-97.0507,2.0,71.00931254,14.99622619,-99999.0,'11111222,11111222,99999999' 
TABS,ioos:station:wmo:42044:1,2008-02-04T08:00:00Z,26.1914,-97.0507,2.0,78.01605865,13.00339956,-99999.0,'11111222,11111222,99999999' 
TABS,ioos:station:wmo:42044:1,2008-02-04T08:30:00Z,26.1914,-97.0507,2.0,70.99155324,12.00460745,-99999.0,'11111222,11111222,99999999' 
TABS,ioos:station:wmo:42044:1,2008-02-04T09:00:00Z,26.1914,-97.0507,2.0,69.011154,10.99984091,-99999.0,'11111222,11111222,99999999' 
TABS,ioos:station:wmo:42044:1,2008-02-04T09:30:00Z,26.1914,-97.0507,2.0,67.99398582,12.99689963,-99999.0,'11111222,11111222,99999999' 
TABS,ioos:station:wmo:42044:1,2008-02-04T10:00:00Z,26.1914,-97.0507,2.0,62.0253355,9.998249847,-99999.0,'11133222,11111222,99999999' 
TABS,ioos:station:wmo:42044:1,2008-02-04T10:30:00Z,26.1914,-97.0507,2.0,50.00494375,11.99584095,-99999.0,'11111222,11111222,99999999' 
TABS,ioos:station:wmo:42044:1,2008-02-04T11:00:00Z,26.1914,-97.0507,2.0,32.00985743,13.99833204,-99999.0,'11111222,11111222,99999999' 
TABS,ioos:station:wmo:42044:1,2008-02-04T11:30:00Z,26.1914,-97.0507,2.0,33.00552071,12.99755362,-99999.0,'11111222,11111222,99999999' 
TABS,ioos:station:wmo:42044:1,2008-02-04T12:00:00Z,26.1914,-97.0507,2.0,19.98632896,16.00382767,-99999.0,'11111222,11111222,99999999' 
TABS,ioos:station:wmo:42044:1,2008-02-04T12:30:00Z,26.1914,-97.0507,2.0,17.02144181,14.99692302,-99999.0,'11111222,11111222,99999999' 
TABS,ioos:station:wmo:42044:1,2008-02-04T13:00:00Z,26.1914,-97.0507,2.0,22.98976149,17.99960555,-99999.0,'11111222,11111222,99999999' 
TABS,ioos:station:wmo:42044:1,2008-02-04T13:30:00Z,26.1914,-97.0507,2.0,12.01240597,16.00035625,-99999.0,'11111222,11111222,99999999' 
TABS,ioos:station:wmo:42044:1,2008-02-04T14:00:00Z,26.1914,-97.0507,2.0,13.98239047,18.00342745,-99999.0,'11111222,11111222,99999999' 
TABS,ioos:station:wmo:42044:1,2008-02-04T14:30:00Z,26.1914,-97.0507,2.0,3.009979162,19.99758485,-99999.0,'11111222,11111222,99999999' 
TABS,ioos:station:wmo:42044:1,2008-02-04T15:00:00Z,26.1914,-97.0507,2.0,9.0055871,19.99648469,-99999.0,'11111222,11111222,99999999' 
TABS,ioos:station:wmo:42044:1,2008-02-04T15:30:00Z,26.1914,-97.0507,2.0,9.013951274,20.99932618,-99999.0,'11111222,11111222,99999999' 
TABS,ioos:station:wmo:42044:1,2008-02-04T16:00:00Z,26.1914,-97.0507,2.0,7.985328197,19.00426268,-99999.0,'11111222,11111222,99999999' 
TABS,ioos:station:wmo:42044:1,2008-02-04T16:30:00Z,26.1914,-97.0507,2.0,12.00689069,24.9968498,-99999.0,'11111222,11111222,99999999' 
TABS,ioos:station:wmo:42044:1,2008-02-04T17:00:00Z,26.1914,-97.0507,2.0,12.01109296,20.99972619,-99999.0,'11111222,11111222,99999999' 
TABS,ioos:station:wmo:42044:1,2008-02-04T17:30:00Z,26.1914,-97.0507,2.0,13.9990114,26.0022499,-99999.0,'11111222,11111222,99999999' 
TABS,ioos:station:wmo:42044:1,2008-02-04T18:00:00Z,26.1914,-97.0507,2.0,14.99772553,23.99742695,-99999.0,'11111222,11111222,99999999' 
TABS,ioos:station:wmo:42044:1,2008-02-04T18:30:00Z,26.1914,-97.0507,2.0,24.01186837,25.99997885,-99999.0,'11111222,11111222,99999999' 
TABS,ioos:station:wmo:42044:1,2008-02-04T19:00:00Z,26.1914,-97.0507,2.0,26.0034955,26.00224798,-99999.0,'11111222,11111222,99999999' 
TABS,ioos:station:wmo:42044:1,2008-02-04T19:30:00Z,26.1914,-97.0507,2.0,26.99560049,25.00441761,-99999.0,'11111222,11111222,99999999' 
TABS,ioos:station:wmo:42044:1,2008-02-04T20:00:00Z,26.1914,-97.0507,2.0,27.00169317,27.00354051,-99999.0,'11111222,11111222,99999999' 
TABS,ioos:station:wmo:42044:1,2008-02-04T20:30:00Z,26.1914,-97.0507,2.0,34.99623073,22.99829776,-99999.0,'11111222,11111222,99999999' 
TABS,ioos:station:wmo:42044:1,2008-02-04T21:00:00Z,26.1914,-97.0507,2.0,33.88646441,22.67073003,-99999.0,'11111222,11111222,99999999' 
TABS,ioos:station:wmo:42044:1,2008-02-04T21:30:00Z,26.1914,-97.0507,2.0,36.00157177,25.99498606,-99999.0,'11111222,11111222,99999999' 
TABS,ioos:station:wmo:42044:1,2008-02-04T22:00:00Z,26.1914,-97.0507,2.0,37.99049323,27.00116294,-99999.0,'11111222,11111222,99999999' 